DW6826 Weather Reports


time (UTC)temp
C
wind
direction
speed
KPH
gust
KPH
rain 1hr
cm
rain 24hr
cm
rain mn
cm
humidity
%
barometer
mb
20260503230420 18 103 0.0 3.2 0.00 0.00 0.00 59 1016.9
20260503225840 18 301 0.0 3.2 0.00 0.00 0.00 58 1017.0
20260503225415 18 342 1.6 3.2 0.00 0.00 0.00 60 1017.0
20260503224835 18 318 1.6 3.2 0.00 0.00 0.00 58 1017.0
20260503224406 18 303 0.0 3.2 0.00 0.00 0.00 58 1017.0
20260503223930 18 308 0.0 3.2 0.00 0.00 0.00 58 1017.0
20260503223440 19 303 1.6 3.2 0.00 0.00 0.00 58 1017.0
20260503222838 19 317 0.0 4.8 0.00 0.00 0.00 58 1017.0
20260503222349 19 224 0.0 4.8 0.00 0.00 0.00 58 1017.0
20260503221912 19 237 0.0 6.4 0.00 0.00 0.00 57 1016.9
20260503221330 19 324 3.2 4.8 0.00 0.00 0.00 57 1016.9
20260503220903 19 318 1.6 3.2 0.00 0.00 0.00 58 1016.8
20260503220325 19 297 0.0 3.2 0.00 0.00 0.00 59 1016.8
20260503215856 19 315 0.0 4.8 0.00 0.00 0.00 58 1016.8
20260503215357 19 252 1.6 4.8 0.00 0.00 0.00 57 1016.7
20260503214826 19 251 1.6 4.8 0.00 0.00 0.00 58 1016.7
20260503214347 19 314 1.6 6.4 0.00 0.00 0.00 59 1016.8
20260503213919 19 62 1.6 6.4 0.00 0.00 0.00 58 1016.7
20260503213325 19 293 1.6 4.8 0.00 0.00 0.00 58 1016.7
20260503212828 19 329 1.6 6.4 0.00 0.00 0.00 59 1016.7
20260503212332 19 325 3.2 6.4 0.00 0.00 0.00 59 1016.7
20260503211835 19 197 1.6 8.0 0.00 0.00 0.00 57 1016.8
20260503211336 19 128 1.6 6.4 0.00 0.00 0.00 57 1016.8
20260503210849 19 210 1.6 4.8 0.00 0.00 0.00 57 1016.9
20260503210412 19 266 1.6 4.8 0.00 0.00 0.00 57 1016.9
20260503205844 19 16 0.0 6.4 0.00 0.03 0.00 57 1017.0
20260503205347 19 156 3.2 6.4 0.00 0.03 0.00 56 1017.2
20260503204909 19 341 1.6 6.4 0.00 0.03 0.00 57 1017.2
20260503204416 19 102 1.6 6.4 0.00 0.03 0.00 58 1017.2
20260503203821 19 265 1.6 4.8 0.00 0.03 0.00 57 1017.3
20260503203344 19 270 1.6 4.8 0.00 0.03 0.00 56 1017.2
20260503202914 19 252 1.6 6.4 0.00 0.03 0.00 59 1017.2
20260503202434 19 243 1.6 8.0 0.00 0.03 0.00 57 1017.2
20260503201845 19 283 1.6 3.2 0.00 0.03 0.00 58 1017.4
20260503200843 19 305 1.6 4.8 0.00 0.03 0.00 55 1017.5
20260503200326 19 354 0.0 8.0 0.00 0.03 0.00 57 1017.5
20260503195837 19 127 3.2 8.0 0.00 0.18 0.00 56 1017.6
20260503195358 19 247 1.6 8.0 0.00 0.18 0.00 57 1017.5
20260503194841 19 211 1.6 9.7 0.00 0.18 0.00 55 1017.6
20260503194342 19 199 3.2 8.0 0.00 0.18 0.00 55 1017.6
20260503193855 19 74 1.6 9.7 0.00 0.18 0.00 56 1017.7
20260503193420 19 162 3.2 9.7 0.00 0.18 0.00 55 1017.7
20260503192848 19 143 4.8 8.0 0.00 0.18 0.00 56 1017.9
20260503192351 19 241 1.6 6.4 0.00 0.18 0.00 56 1018.0
20260503191853 19 73 0.0 8.0 0.00 0.18 0.00 56 1018.1
20260503191355 19 119 3.2 9.7 0.00 0.18 0.00 57 1018.2
20260503190845 18 4 1.6 9.7 0.00 0.18 0.00 56 1018.4
20260503190408 18 308 1.6 12.9 0.00 0.18 0.00 57 1018.4
20260503185903 18 228 3.2 12.9 0.00 0.28 0.00 55 1018.4
20260503185407 19 108 3.2 11.3 0.00 0.28 0.00 54 1018.5
20260503184849 18 256 0.0 9.7 0.00 0.28 0.00 56 1018.4
20260503184401 18 292 1.6 9.7 0.00 0.28 0.00 57 1018.5
20260503183905 18 263 1.6 8.0 0.00 0.28 0.00 57 1018.5
20260503183326 18 295 3.2 9.7 0.00 0.28 0.00 57 1018.6
20260503182830 18 117 3.2 8.0 0.00 0.28 0.00 56 1018.7
20260503182344 19 282 1.6 9.7 0.00 0.28 0.00 55 1018.8
20260503181827 19 19 3.2 9.7 0.00 0.28 0.00 55 1018.8
20260503181330 20 93 4.8 9.7 0.00 0.28 0.00 53 1018.8
20260503180833 20 138 1.6 6.4 0.00 0.28 0.00 52 1018.8
20260503180337 20 206 3.2 4.8 0.00 0.28 0.00 50 1018.7
20260503175909 20 354 0.0 3.2 0.00 0.56 0.00 48 1018.8
20260503175415 20 331 1.6 4.8 0.00 0.56 0.00 47 1018.7
20260503174835 20 103 0.0 4.8 0.00 0.56 0.00 48 1018.7
20260503174406 21 327 3.2 4.8 0.00 0.56 0.00 47 1018.7
20260503173907 21 320 0.0 3.2 0.00 0.56 0.00 48 1018.7
20260503173418 21 320 1.6 3.2 0.00 0.56 0.00 46 1018.7
20260503172834 21 343 1.6 4.8 0.00 0.56 0.00 48 1018.8
20260503172339 21 162 1.6 4.8 0.00 0.56 0.00 46 1018.8
20260503171911 20 126 0.0 4.8 0.00 0.56 0.00 48 1018.9
20260503171329 21 281 1.6 11.3 0.00 0.56 0.00 48 1018.9
20260503170852 21 191 1.6 6.4 0.00 0.56 0.00 45 1018.9
20260503170358 21 58 0.0 4.8 0.00 0.56 0.00 49 1019.1
20260503150910 18 104 3.2 12.9 0.00 0.91 0.00 54 1019.8
20260503150341 18 4 1.6 8.0 0.00 0.91 0.00 55 1019.7
20260503131343 15 118 1.6 6.4 0.00 1.85 0.00 87 1019.0
20260503130858 15 104 1.6 6.4 0.00 1.85 0.00 87 1019.1
20260503130423 14 108 1.6 6.4 0.00 1.85 0.00 87 1019.1
20260503110422 8 142 0.0 0.0 0.00 2.11 0.00 96 1018.0
20260503090344 9 143 0.0 0.0 0.00 2.59 0.00 96 1016.6
20260503081345 10 143 0.0 0.0 0.00 2.82 0.00 96 1016.2
20260503080918 10 143 0.0 0.0 0.00 2.82 0.00 96 1016.2
20260503080339 10 143 0.0 0.0 0.00 2.82 0.00 96 1016.1
20260503072907 10 143 0.0 0.0 0.00 2.92 0.00 96 1015.9
20260503072417 10 143 0.0 0.0 0.00 2.92 0.00 96 1015.9
20260503071823 10 143 0.0 0.0 0.00 2.92 0.00 96 1015.8
20260503071325 10 143 0.0 0.0 0.00 2.92 0.00 96 1015.8
20260503070855 10 143 0.0 0.0 0.00 2.92 0.00 96 1015.8
20260503070419 10 143 0.0 0.0 0.00 2.92 0.00 96 1015.7
20260503054859 11 143 0.0 0.0 0.00 3.02 0.00 95 1015.4
20260503054412 11 143 0.0 0.0 0.00 3.02 0.00 95 1015.4
20260503053848 11 143 0.0 0.0 0.00 3.02 0.00 96 1015.4
20260503053332 11 143 0.0 0.0 0.00 3.02 0.00 95 1015.2
20260503052836 11 143 0.0 0.0 0.00 3.02 0.00 95 1015.2
20260503052341 11 143 0.0 0.0 0.00 3.02 0.00 95 1015.2
20260503051838 11 143 0.0 0.0 0.00 3.02 0.00 95 1015.2
20260503051340 11 143 0.0 0.0 0.00 3.02 0.00 96 1015.2
20260503050827 11 143 0.0 0.0 0.00 3.02 0.00 95 1015.3
20260503050323 11 143 0.0 0.0 0.00 3.02 0.00 95 1015.1
20260503045828 11 143 0.0 0.0 0.00 3.02 0.00 95 1015.1
20260503045330 12 143 0.0 0.0 0.00 3.02 0.00 95 1015.1
20260503044837 12 143 0.0 0.0 0.00 3.02 0.00 95 1015.0
20260503044330 12 143 0.0 0.0 0.00 3.02 0.00 95 1014.9
20260503043836 12 143 0.0 0.0 0.00 3.02 0.00 95 1014.9
20260503043402 12 143 0.0 0.0 0.00 3.02 0.00 95 1014.9
20260503042845 12 143 0.0 0.0 0.00 3.02 0.00 96 1014.9
20260503042330 12 143 0.0 0.0 0.00 3.02 0.00 96 1014.8
20260503041829 12 143 0.0 1.6 0.00 3.02 0.00 96 1014.8
20260503041334 12 143 0.0 1.6 0.00 3.02 0.00 96 1014.7
20260503040839 12 143 0.0 1.6 0.00 3.02 0.00 96 1014.7
20260503040325 12 154 0.0 1.6 0.00 3.02 0.00 96 1014.6
20260503035851 12 158 0.0 0.0 0.00 3.05 3.02 95 1014.6
20260503035355 12 158 0.0 0.0 0.00 3.05 3.02 95 1014.4
20260503034827 12 158 0.0 0.0 0.00 3.05 3.02 95 1014.4
20260503034328 12 158 0.0 0.0 0.00 3.05 3.02 95 1014.4
20260503033848 12 158 0.0 1.6 0.00 3.05 3.02 95 1014.4
20260503033400 12 159 0.0 0.0 0.00 3.05 3.02 95 1014.3
20260503032823 12 199 0.0 0.0 0.00 3.05 3.02 95 1014.3
20260503032335 12 199 0.0 0.0 0.00 3.05 3.02 95 1014.2
20260503031839 12 199 0.0 1.6 0.00 3.05 3.02 95 1014.2
20260503031342 12 199 0.0 1.6 0.00 3.05 3.02 94 1014.1
20260503030848 12 199 0.0 1.6 0.00 3.05 3.02 95 1014.1
20260503030418 12 199 0.0 1.6 0.00 3.05 3.02 95 1014.0
20260503025836 12 199 0.0 1.6 0.00 3.05 3.02 95 1013.9
20260503025341 12 143 0.0 0.0 0.00 3.05 3.02 95 1014.0
20260503024844 12 143 0.0 0.0 0.00 3.05 3.02 95 1014.0
20260503024351 12 143 0.0 3.2 0.00 3.05 3.02 95 1013.8
20260503023835 12 143 0.0 3.2 0.00 3.05 3.02 95 1013.7
20260503023353 12 122 0.0 3.2 0.00 3.05 3.02 95 1013.7
20260503022344 12 122 0.0 0.0 0.00 3.05 3.02 95 1013.5
20260503021849 12 122 0.0 3.2 0.00 3.05 3.02 95 1013.3
20260503021359 12 122 0.0 3.2 0.00 3.05 3.02 95 1013.0
20260503020919 12 131 0.0 1.6 0.00 3.05 3.02 95 1012.9
20260503020344 12 120 0.0 3.2 0.00 3.05 3.02 95 1012.9
20260503015834 12 152 0.0 1.6 0.00 3.07 3.02 95 1013.0
20260503015339 12 263 0.0 0.0 0.00 3.07 3.02 95 1012.9
20260503014842 12 117 0.0 1.6 0.00 3.07 3.02 95 1012.7
20260503014404 12 117 0.0 4.8 0.00 3.07 3.02 95 1012.6
20260503013916 12 117 1.6 4.8 0.00 3.07 3.02 95 1012.5
20260503013359 12 84 0.0 4.8 0.00 3.07 3.02 95 1012.4
20260503012915 12 83 1.6 4.8 0.00 3.07 3.02 95 1012.3
20260503012322 12 153 0.0 4.8 0.00 3.07 3.02 95 1012.4
20260503011834 12 145 0.0 4.8 0.00 3.07 3.02 95 1012.6
20260503011335 13 91 0.0 1.6 0.00 3.07 3.02 95 1012.6
20260503010836 13 91 0.0 3.2 0.00 3.07 3.02 95 1012.6
20260503010358 12 108 0.0 3.2 0.00 3.07 3.02 95 1012.7
20260503005858 13 108 1.6 3.2 0.00 3.12 3.02 95 1012.7
20260503005349 13 135 0.0 3.2 0.00 3.12 3.02 95 1012.6
20260503004852 13 328 0.0 3.2 0.00 3.12 3.02 95 1012.7
20260503004356 13 307 0.0 4.8 0.00 3.12 3.02 95 1012.4
20260503003920 13 270 1.6 6.4 0.00 3.12 3.02 95 1012.2
20260503003349 13 91 0.0 3.2 0.00 3.12 3.02 95 1012.1
20260503002912 13 91 0.0 4.8 0.00 3.12 3.02 95 1012.1
20260503002441 13 64 0.0 4.8 0.00 3.12 3.02 95 1012.2
20260503001840 13 143 0.0 3.2 0.00 3.12 3.02 95 1011.9
20260503001411 13 100 0.0 3.2 0.00 3.12 3.02 95 1011.7
20260503000914 13 173 0.0 6.4 0.00 3.12 3.02 95 1011.7
20260503000335 13 314 1.6 6.4 0.00 3.12 3.02 95 1011.7
20260502235905 13 185 0.0 4.8 0.00 3.25 3.02 95 1011.8
20260502235328 13 149 0.0 4.8 0.00 3.25 3.02 95 1011.7
20260502234859 13 271 0.0 6.4 0.00 3.25 3.02 95 1011.7
20260502234420 13 271 0.0 6.4 0.00 3.25 3.02 95 1011.6
20260502233851 13 77 0.0 8.0 0.00 3.25 3.02 95 1011.4
20260502233414 13 87 0.0 11.3 0.00 3.25 3.02 95 1011.4
20260502232833 13 91 1.6 11.3 0.00 3.25 3.02 95 1011.4
20260502232406 13 83 1.6 11.3 0.00 3.25 3.02 95 1011.4
20260502231826 13 322 1.6 4.8 0.00 3.25 3.02 95 1011.2
20260502231356 13 22 0.0 4.8 0.00 3.25 3.02 95 1011.0
20260502230857 13 87 1.6 4.8 0.00 3.25 3.02 95 1010.9